Location: Caserta
(41.0670°N, 14.3330°E)
Time: 12:30:52
(UTC+02:00)

STARLINK-1329 - Pass Details

Date: 02 October 2020
Orbit: 549 x 550 km, 53.0° (Epoch: 21 October)

Event Time Altitude Azimuth Distance (km) Brightness Sun altitude
Exits shadow 03:50:58 15° 58° (ENE) 1,546 6.6 -35.2°
Drops below altitude 10° 03:51:41 10° 56° (ENE) 1,823 7.1 -35.1°
Sets 03:53:56 0° 54° (NE) 2,720 8.2 -34.7°
